[[{"header":{"parameterUnit":"m.s-1","parameterCategory":1,"la1":30.2991,"la2":30.254,"lo1":-89.0895,"lo2":-89.0444,"dy":0.0017,"dx":0.0017,"nx":28,"ny":28,"refTime":"2025-05-30T09:00:00:Z","depth":0,"parameterNumber":2,"parameterNumberName":"U-component_of_WINDS"},"data":[0,0,0,0,0,0,0,0,0,0,0,0,0,0,0,0,0,0,0,0,0,0,0,0,0,0,0,0,0,0,0,0,0,0,0,0,0,0,0,0,0,0,0,0,0,0,0,0,0,0,0,0,0,0,0,0,0,0,0.7465,0.7465,0,0.7482,0.7482,0.7482,0.749,0.749,0.749,0.749,0.7505,0.7506,0.7506,0,0,0,0,0,0,0,0,0,0,0,0,0,0.744,0.744,0.7465,0.7465,0.7465,0.7482,0.7482,0.7482,0.749,0.749,0.749,0.749,0.7505,0.7506,0.7506,0,0,0,0,0,0,0,0,0,0,0,0,0,0.7453,0.744,0.7465,0.7471,0.7472,0.7482,0.7482,0.7482,0.749,0.749,0.749,0.749,0.7505,0.7506,0.7506,0.751,0,0,0.7508,0.7508,0,0,0,0,0,0,0,0,0.7452,0.7454,0.747,0.7471,0.7472,0.7484,0.7479,0.7491,0.749,0.7483,0.749,0.749,0.7498,0.7499,0.7502,0.7511,0.7511,0.7508,0.7508,0.7509,0.7509,0,0,0,0,0,0,0,0.7451,0.7453,0.7471,0.747,0.7471,0.7473,0.7475,0.7481,0.749,0.7484,0.7484,0.7486,0.7498,0.7502,0.7503,0.7511,0.7508,0.7509,0.7509,0.7509,0.7526,0.7526,0,0,0,0,0,0,0.7449,0.7452,0.7471,0.7472,0.7462,0.7474,0.7476,0.748,0.749,0.7492,0.7486,0.7487,0.7501,0.7502,0.7503,0.7509,0.7509,0.7509,0.751,0.7526,0.7526,0.7526,0,0,0,0,0,0,0.7449,0.7451,0.747,0.7462,0.7465,0.7474,0.7479,0.748,0.7483,0.7492,0.7494,0.7488,0.7501,0.7502,0.7509,0.751,0.7509,0.751,0.7526,0.7526,0.7526,0.7521,0,0,0,0,0,0,0.7448,0.7451,0.7452,0.7462,0.7465,0.7475,0.7479,0.7481,0.7485,0.7485,0.7494,0.7496,0.7501,0.7508,0.7509,0.7511,0.7511,0.7526,0.7526,0.7526,0.7521,0.7521,0.7521,0,0,0,0,0,0.7447,0.7449,0.7452,0.7454,0.7467,0.7475,0.7477,0.7484,0.7485,0.7486,0.7493,0.7495,0.751,0.7509,0.751,0.7512,0.7526,0.7526,0.7526,0.7521,0.7521,0.7521,0,0,0,0,0,0,0.7437,0.745,0.7454,0.7459,0.7466,0.7477,0.7479,0.7483,0.7489,0.7489,0.7497,0.7499,0.7505,0.7509,0.7507,0.7517,0.7518,0.7519,0.7514,0.7514,0.7514,0.7512,0.7511,0,0,0,0,0,0.7435,0.7441,0.7453,0.7456,0.746,0.7469,0.7473,0.7477,0.7485,0.7488,0.7494,0.7501,0.7507,0.7511,0.7517,0.7523,0.7525,0.7525,0.7525,0.7525,0.7525,0.753,0.753,0.7527,0.7527,0.7527,0,0,0.7432,0.744,0.7443,0.7454,0.7461,0.7467,0.7471,0.7477,0.7482,0.7488,0.7495,0.75,0.7509,0.7515,0.7518,0.7519,0.7527,0.7525,0.7525,0.7525,0.753,0.753,0.753,0.7527,0.7527,0.7527,0,0,0.7429,0.7436,0.744,0.7447,0.7457,0.7463,0.7465,0.7475,0.7479,0.7487,0.7493,0.7499,0.7509,0.7515,0.7519,0.7523,0.7526,0.7524,0.7523,0.7528,0.7528,0.7528,0.753,0.753,0.7525,0.7525,0.7525,0,0.7423,0.7433,0.7441,0.7448,0.7453,0.7461,0.7466,0.7472,0.7483,0.7487,0.7488,0.7503,0.7509,0.7518,0.7519,0.7522,0.7524,0.7523,0.7527,0.7528,0.7528,0.753,0.753,0.7524,0.7524,0.7524,0.7525,0,0.7425,0.7432,0.7435,0.7447,0.7453,0.7458,0.7468,0.7473,0.7479,0.7485,0.7494,0.7502,0.7511,0.7513,0.7517,0.7523,0.7524,0.7526,0.7527,0.7528,0.753,0.753,0.7524,0.7524,0.7524,0.7524,0,0,0.7414,0.7433,0.7434,0.744,0.7453,0.7459,0.7466,0.7476,0.748,0.7488,0.7494,0.7505,0.7508,0.7513,0.7519,0.7523,0.7526,0.7525,0.7525,0.7525,0.7534,0.7532,0.7532,0.7529,0.7529,0.7529,0.7533,0,0.7412,0.7425,0.7435,0.7444,0.7451,0.746,0.7467,0.7475,0.7483,0.749,0.7498,0.7505,0.7508,0.7512,0.7517,0.7524,0.7528,0.7524,0.7534,0.7535,0.7531,0.7533,0.753,0.7533,0.7534,0.7534,0.7534,0,0.7412,0.7421,0.7431,0.7446,0.7449,0.7454,0.7466,0.7472,0.7484,0.7489,0.7496,0.7503,0.7511,0.7513,0.7524,0.7522,0.7527,0.7532,0.7532,0.7533,0.7534,0.7533,0.7535,0.7535,0.7535,0.7535,0.7535,0,0.7402,0.7418,0.7426,0.7432,0.7449,0.7453,0.746,0.7471,0.7477,0.7487,0.7491,0.7502,0.7507,0.7516,0.7525,0.7525,0.7536,0.7538,0.7541,0.7541,0.7541,0.7541,0.7543,0.7546,0.7546,0.7546,0.7546,0,0.7399,0.7405,0.7423,0.7428,0.7435,0.7447,0.7454,0.7462,0.7473,0.748,0.7489,0.7496,0.7508,0.7517,0.7524,0.7534,0.7536,0.7541,0.7542,0.7539,0.7539,0.7542,0.7542,0.7546,0.7546,0.7546,0.7546,0,0.7389,0.7401,0.7411,0.7428,0.7432,0.7437,0.7451,0.7457,0.7466,0.7475,0.7478,0.7492,0.7503,0.7514,0.7527,0.7533,0.7542,0.7544,0.7538,0.7539,0.7541,0.7541,0.7545,0.7546,0.7548,0.7548,0.7548,0,0.7386,0.7391,0.7409,0.7415,0.7423,0.7432,0.7439,0.7452,0.7459,0.7474,0.7478,0.7489,0.7499,0.7516,0.7527,0.7539,0.7541,0.7542,0.7543,0.754,0.7541,0.7541,0.7542,0.7541,0.7541,0.7541,0.7541,0,0.7379,0.7386,0.7396,0.7409,0.7417,0.7428,0.7438,0.7443,0.7458,0.7466,0.7477,0.7485,0.7501,0.7513,0.7526,0.7534,0.754,0.7541,0.7543,0.7539,0.7535,0.7537,0.7537,0.7541,0.7541,0.7541,0.7541,0.7541,0.7372,0.7378,0.7392,0.7404,0.7414,0.7424,0.7431,0.7442,0.7452,0.7467,0.7474,0.7486,0.7499,0.7518,0.7526,0.7536,0.7537,0.7539,0.7539,0.7539,0.7539,0.7535,0.7538,0.7538,0.7538,0.7538,0.7538,0,0.7366,0.7377,0.7387,0.7403,0.7413,0.742,0.7433,0.744,0.7451,0.7463,0.7474,0.7488,0.75,0.7514,0.7527,0.7533,0.7536,0.7535,0.7535,0.7537,0.7536,0.7534,0.7533,0.7533,0.7533,0.7533,0.7533,0.7533,0.7364,0.7374,0.7383,0.7399,0.741,0.7422,0.7429,0.7439,0.745,0.7466,0.7476,0.7486,0.7499,0.7514,0.7526,0.7529,0.7534,0.7532,0.7537,0.7536,0.7536,0.7537,0.7535,0.7533,0.7533,0.7536,0.7536,0.7536]},{"header":{"parameterUnit":"m.s-1","parameterCategory":1,"la1":30.2991,"la2":30.254,"lo1":-89.0895,"lo2":-89.0444,"dy":0.0017,"dx":0.0017,"nx":28,"ny":28,"refTime":"2025-05-30T09:00:00:Z","depth":0,"parameterNumber":3,"parameterNumberName":"V-component_of_WINDS"},"data":[0,0,0,0,0,0,0,0,0,0,0,0,0,0,0,0,0,0,0,0,0,0,0,0,0,0,0,0,0,0,0,0,0,0,0,0,0,0,0,0,0,0,0,0,0,0,0,0,0,0,0,0,0,0,0,0,0,0,-5.8087,-5.8088,0,-5.8202,-5.8203,-5.8204,-5.8116,-5.8112,-5.8108,-5.8105,-5.8217,-5.8224,-5.823,0,0,0,0,0,0,0,0,0,0,0,0,0,-5.7788,-5.7794,-5.8087,-5.8088,-5.809,-5.8201,-5.8203,-5.8204,-5.8117,-5.8112,-5.8107,-5.8103,-5.8215,-5.8223,-5.8231,0,0,0,0,0,0,0,0,0,0,0,0,0,-5.7911,-5.7796,-5.8087,-5.806,-5.8058,-5.8201,-5.8203,-5.8205,-5.8118,-5.8112,-5.8106,-5.8101,-5.8213,-5.8222,-5.8232,-5.8406,0,0,-5.8262,-5.8266,0,0,0,0,0,0,0,0,-5.7905,-5.7923,-5.8062,-5.8062,-5.8061,-5.8139,-5.8139,-5.8272,-5.8119,-5.8095,-5.8105,-5.8098,-5.8195,-5.8206,-5.824,-5.8411,-5.8416,-5.8263,-5.8269,-5.8273,-5.8275,0,0,0,0,0,0,0,-5.7896,-5.7917,-5.8132,-5.8064,-5.8063,-5.804,-5.8051,-5.8163,-5.8175,-5.8097,-5.809,-5.8105,-5.8194,-5.8231,-5.8242,-5.8418,-5.8262,-5.8271,-5.8277,-5.8281,-5.8737,-5.8743,0,0,0,0,0,0,-5.7891,-5.7911,-5.8128,-5.8136,-5.7967,-5.805,-5.8063,-5.8119,-5.8174,-5.8177,-5.811,-5.8101,-5.8217,-5.8231,-5.8246,-5.8453,-5.8273,-5.8282,-5.8287,-5.8731,-5.8739,-5.8745,0,0,0,0,0,0,-5.7885,-5.7911,-5.8124,-5.8022,-5.8047,-5.8061,-5.8126,-5.8125,-5.8161,-5.8184,-5.8186,-5.8146,-5.8213,-5.8232,-5.8367,-5.8456,-5.8286,-5.8295,-5.8724,-5.8733,-5.8742,-5.8871,0,0,0,0,0,0,-5.7877,-5.7909,-5.7977,-5.8024,-5.8053,-5.8245,-5.8131,-5.8131,-5.8179,-5.8168,-5.8219,-5.8221,-5.821,-5.8353,-5.8377,-5.8467,-5.8303,-5.8716,-5.8728,-5.8739,-5.8858,-5.8883,-5.8904,0,0,0,0,0,-5.7866,-5.8007,-5.7981,-5.8008,-5.8138,-5.8251,-5.8267,-5.8252,-5.8187,-5.8254,-5.8269,-5.822,-5.8443,-5.8368,-5.8394,-5.8488,-5.871,-5.8725,-5.8738,-5.8848,-5.8878,-5.8904,0,0,0,0,0,0,-5.7969,-5.8013,-5.7984,-5.8145,-5.8195,-5.8236,-5.832,-5.8285,-5.8353,-5.834,-5.8317,-5.8329,-5.8472,-5.8493,-5.8409,-5.8659,-5.8566,-5.8586,-5.864,-5.8669,-5.8692,-5.8683,-5.8311,0,0,0,0,0,-5.8011,-5.81,-5.8133,-5.8272,-5.8299,-5.8306,-5.8354,-5.8339,-5.8389,-5.8409,-5.8433,-5.8483,-5.8563,-5.8617,-5.8693,-5.8861,-5.887,-5.8938,-5.8961,-5.898,-5.8997,-5.9088,-5.9118,-5.8792,-5.8791,-5.8791,0,0,-5.8097,-5.8132,-5.819,-5.8294,-5.8331,-5.8423,-5.8324,-5.8425,-5.8493,-5.8424,-5.8554,-5.8573,-5.8626,-5.8779,-5.8847,-5.8801,-5.909,-5.8998,-5.9013,-5.902,-5.9105,-5.9136,-5.9164,-5.8801,-5.8799,-5.8798,0,0,-5.8302,-5.8338,-5.8458,-5.8497,-5.8555,-5.8558,-5.8587,-5.8634,-5.8645,-5.8775,-5.8725,-5.8804,-5.8944,-5.8984,-5.9023,-5.9244,-5.9201,-5.9269,-5.9389,-5.9477,-5.9503,-5.9525,-5.9604,-5.9633,-5.9286,-5.9287,-5.9287,0,-5.8402,-5.854,-5.8523,-5.8629,-5.8676,-5.8619,-5.874,-5.8778,-5.8857,-5.889,-5.8838,-5.9013,-5.9044,-5.9205,-5.926,-5.9293,-5.9324,-5.9263,-5.9501,-5.9523,-5.9544,-5.9619,-5.9649,-5.9294,-5.9294,-5.9293,-5.9292,0,-5.866,-5.8757,-5.8846,-5.8926,-5.8983,-5.9095,-5.9094,-5.9153,-5.9133,-5.9142,-5.9275,-5.9311,-5.9393,-5.943,-5.9411,-5.9589,-5.9558,-5.9504,-5.9409,-5.9584,-5.9653,-5.9682,-5.9306,-5.9303,-5.9301,-5.9299,0,0,-5.8933,-5.9003,-5.9036,-5.9072,-5.9131,-5.9205,-5.9314,-5.9396,-5.9447,-5.9503,-5.9594,-5.9714,-5.9665,-5.9709,-5.9693,-5.977,-5.9943,-5.9706,-5.9707,-5.9749,-6.0141,-6.0182,-6.0216,-5.9915,-5.992,-5.9924,-6.0137,0,-5.9141,-5.9334,-5.9322,-5.9503,-5.9591,-5.9539,-5.9634,-5.968,-5.9691,-5.9767,-5.9778,-5.9864,-5.9791,-5.9818,-5.9892,-5.9906,-6.0021,-5.9891,-5.9998,-6.0002,-5.9987,-6.0252,-6.0296,-6.0494,-6.0164,-6.0168,-6.0172,0,-5.941,-5.9477,-5.9667,-5.9714,-5.9751,-5.9837,-5.9911,-5.9985,-6.0035,-6.0038,-6.0088,-6.0059,-6.0168,-6.0071,-6.0221,-6.0132,-6.0175,-6.0189,-6.0196,-6.0206,-6.0098,-6.0269,-6.0557,-6.0587,-6.0214,-6.0211,-6.0208,0,-5.959,-5.9728,-5.986,-5.9892,-5.9949,-6.0011,-6.0038,-6.0083,-6.0133,-6.0198,-6.023,-6.0305,-6.0347,-6.0405,-6.0397,-6.0328,-6.055,-6.0452,-6.0554,-6.0554,-6.0603,-6.06,-6.0903,-6.0631,-6.063,-6.063,-6.0629,0,-5.9824,-5.9942,-5.9942,-6.0023,-6.0154,-6.0138,-6.0267,-6.0287,-6.0328,-6.041,-6.0369,-6.0447,-6.0432,-6.0509,-6.0504,-6.0628,-6.0647,-6.0651,-6.0648,-6.0655,-6.0655,-6.0683,-6.0669,-6.0638,-6.0636,-6.0634,-6.0633,0,-6.0047,-6.0052,-6.0192,-6.0236,-6.0249,-6.0344,-6.038,-6.0456,-6.0464,-6.0569,-6.0593,-6.0605,-6.0694,-6.0692,-6.0793,-6.0789,-6.0942,-6.0923,-6.0926,-6.0922,-6.1024,-6.1014,-6.1355,-6.1399,-6.1099,-6.1102,-6.1104,0,-6.0196,-6.0286,-6.034,-6.0394,-6.0425,-6.0511,-6.0563,-6.055,-6.0605,-6.067,-6.0738,-6.0824,-6.0892,-6.1037,-6.1053,-6.113,-6.1113,-6.1227,-6.1124,-6.1128,-6.1115,-6.111,-6.1118,-6.1247,-6.125,-6.1253,-6.1255,0,-6.046,-6.0458,-6.0535,-6.0614,-6.0677,-6.0737,-6.0792,-6.0838,-6.0831,-6.0895,-6.0987,-6.104,-6.1144,-6.123,-6.1304,-6.1329,-6.1292,-6.1288,-6.1315,-6.1324,-6.1322,-6.1324,-6.0981,-6.128,-6.1277,-6.1276,-6.1274,-6.1273,-6.0651,-6.0729,-6.0779,-6.0866,-6.0907,-6.096,-6.1034,-6.1052,-6.1129,-6.1214,-6.1201,-6.1304,-6.1351,-6.1447,-6.1479,-6.1558,-6.1518,-6.1558,-6.1568,-6.1578,-6.159,-6.1309,-6.1571,-6.1571,-6.157,-6.1569,-6.1569,0,-6.0913,-6.0943,-6.1023,-6.1103,-6.1172,-6.1132,-6.1191,-6.1251,-6.1342,-6.1391,-6.1459,-6.1564,-6.1647,-6.167,-6.175,-6.1808,-6.1793,-6.183,-6.1825,-6.1832,-6.1621,-6.1589,-6.1841,-6.1841,-6.1841,-6.184,-6.184,-6.184,-6.1057,-6.1187,-6.1191,-6.134,-6.1369,-6.1471,-6.1508,-6.1556,-6.1595,-6.1715,-6.1785,-6.18,-6.1838,-6.192,-6.1994,-6.1998,-6.2029,-6.2073,-6.2071,-6.1873,-6.1846,-6.182,-6.179,-6.208,-6.208,-6.2274,-6.2276,-6.2277]}]]